Location: *
(43.9900°N, 3.4811°E)
Time: 17:51:04
(UTC+00:00)

Cosmos 1782 Rocket - Pass Details

Date: 25 August 2019
Orbit: 607 x 632 km, 82.5° (Epoch: 16 October)

Event Time Altitude Azimuth Distance (km) Brightness Sun altitude
Exits shadow 21:00:13 36° 216° (SW) 998 4.5 -23.4°
Maximum altitude 21:01:51 60° 281° (W) 715 4.0 -23.6°
Drops below altitude 10° 21:06:13 10° 1° (N) 1,996 6.7 -24.2°
Sets 21:08:29 0° 5° (N) 2,903 7.6 -24.5°
